Weather in Pivdenne

Ukraine / Kharkiv Region     49°52′35″N   36°03′51″E
temp.,
°C
wind,
m/s
gust,
m/s
humid.,
%
clouds,
%
prec.,
mm/h
press.,
hPa
HPBL,
m
3 august, tue
tue300:00+21ne1183100 2.1 101048
03:00+20wsw3587100 2.6 1010130
06:00+19w34885 0.1 1011124
09:00+23nw3370100 0.3 1012513
12:00+28wnw454413 0.0 10121400
15:00+30wnw553299 0.0 10112199
18:00+28wnw653333 0.0 10121923
21:00+21nw36500 0.0 1014152
4 august, wed
wed400:00+19n37585 0.0 1015132
03:00+17n116712 0.0 101632
06:00+19n1261100 0.0 101665
09:00+21nnw115574 0.0 1017335
12:00+27nw243188 0.0 10172760
15:00+29nw552436 0.0 10162986
18:00+27nnw55241 0.0 10162530
21:00+21nne343713 0.0 101762
5 august, thu
thu500:00+19e234270 0.0 101854
03:00+18ese234625 0.0 101844
06:00+17se34555 0.0 101888
09:00+24sse4639100 0.0 1017583
12:00+29s5529100 0.0 10162631
15:00+30sse552692 0.0 10152775
18:00+29sse5528100 0.0 10142374
21:00+23sse374212 0.0 1013123
6 august, fri
fri600:00+21sse36487 0.0 101397
03:00+20se355012 0.0 101294
06:00+20se3749100 0.0 1012153
09:00+27sse583226 0.0 1010584
12:00+33sse68266 0.0 10091888
15:00+35sse782667 0.0 10072880
18:00+34sse772699 0.0 10072861
21:00+28se333853 0.0 100749
7 august, sat
sat700:00+24se3951100 0.1 1007150
03:00+20se4117096 1.3 1007247
06:00+21se51375100 1.8 1008300
09:00+23ese61269100 2.6 1007397
12:00+27se6943100 0.4 1007806
15:00+30ene1538100 1.7 1006983
18:00+29se2548100 0.9 1006352
21:00+22ssw51275100 1.3 1008372